Notices

What's New in latest Release from April 7th, 2021:

- Updated Glossary, including Speed of Maximum Gust, and Total Hourly Precipitation

- Updated national and regional climate services offices contacts and prices information

- Addition of station inventory lists for 1981-2010, 1971-2000, and 1961-1990 Normals.

If you haven't already, please take our survey and provide feedback about our website: https://eccc.sondage-survey.ca/f/LanguageSelection.aspx?s=442ca660-fcf1-47c0-95a9-59707d6fd709

Hourly Data Report for May 07, 2020

TRENTON A
ONTARIO
Current Station Operator: DND

44°07'00.000" N
77°32'00.000" W
86.30 m
6158875
71621
YTR

Download Data

Hourly Data (May 2020)
Hourly Data Report for May 7, 2020
TIME
LST
Temp Definition
°C
Dew Point Definition
°C
Rel Hum Definition
%
Precip. Amount Definition
mm

Wind Dir Definition
10's deg

Wind Spd Definition
km/h
Visibility Definition
km
Stn Press Definition
kPa
Hmdx Definition


Wind Chill Definition


Weather Definition


00:00 4.8 -3.3 54   25 5 24.1 99.97     Mainly Clear
01:00 4.8 -3.1 55   26 4 24.1 99.92     Mainly Clear
02:00 5.3 -3.4 52   34 11 24.1 99.89     Mainly Clear
03:00 5.9 -3.4 50   32 13 24.1 99.85     Mainly Clear
04:00 5.6 -4.0 48   33 13 24.1 99.84     Mainly Clear
05:00 5.1 -4.2 49   33 9 24.1 99.81     Mainly Clear
06:00 6.4 -3.0 50   25 8 24.1 99.86     Mostly Cloudy
07:00 8.1 -4.2 40   27 11 24.1 99.84     Mostly Cloudy
08:00 9.6 -1.3 46   21 13 24.1 99.81     Mainly Clear
09:00 12.1 -4.7 29   27 31 24.1 99.74     Mainly Clear
10:00 11.6 -1.5 40   30 24 24.1 99.71     Mostly Cloudy
11:00 11.1 1.0 50   21 18 24.1 99.65     Mostly Cloudy
12:00 11.8 -1.4 39   27 26 24.1 99.67     Mostly Cloudy
13:00 11.6 0.3 46   28 15 24.1 99.62     Mostly Cloudy
14:00 9.5 2.0 60   31 26 24.1 99.61     Cloudy
15:00 7.2 3.2 76   31 18 12.9 99.65     Rain Showers
16:00 5.0 1.9 80   32 15 11.3 99.74     Rain Showers
17:00 6.9 3.8 81   32 11 24.1 99.67     Mostly Cloudy
18:00 5.1 1.5 78   30 13 12.9 99.76     Drizzle
19:00 5.2 0.9 74   30 11 24.1 99.80     Mainly Clear
20:00 4.1 0.2 76   28 9 24.1 99.89     Mainly Clear
21:00 3.0 0.4 83   27 5 24.1 99.94     Mainly Clear
22:00 1.5 -0.4 87   30 4 24.1 99.94     Clear
23:00 1.3 -0.6 87   28 5 24.1 99.92     Clear

Notes on Data Quality.

Legend

  • E = Estimated
  • M = Missing
  • NA = Not Available*
  • [empty] = Indicates an unobserved value
Date modified: